Aérodrome :
LOGIN :

S'inscrire | Disclaimer

   EN    FR    IT 

 










Légende :    VFR   VFR Marginal   IFR   IFR Intensif   IFR Très Intensif
Visi : 
Plafond : 
>= 8 km
>= 3000ft
5 à 8 km
1000 à 3000 ft
1500m à 5 km
500 à 1000 ft
800 à 1500m
200 à 500 ft
< 800m
< 200 ft
Symboles :   Orages  Brouillard  Fortes neiges  Fortes précipitations  Vent > 20 kt
SIGMETs :   Divers  Orages  Givrage  Turbulence  Onde Orograph.  Cendres Volcan.







- Altitude de l'aérodrome : 12 ft
- Code IATA : NCE
- Voir les cartes d'approche


LFMN - Nice

DERNIER METAR :
  • 180430Z 33006KT CAVOK 24/15 Q1015 NOSIG

METARs EXPIRÉS :
  • 180400Z 34007KT CAVOK 24/15 Q1015 NOSIG
  • 180348Z 33007KT CAVOK 24/15 Q1015 NOSIG
  • 180300Z 34004KT 320V030 CAVOK 24/15 Q1015 NOSIG
  • 180230Z 36009KT CAVOK 24/15 Q1015 NOSIG
  • 180200Z 36005KT 340V050 CAVOK 24/16 Q1015 NOSIG

TAF TAF LFMN
Valide du 18 à 03h jusqu'au 19 à 09h UTC


180200Z 1803/1909 34010KT CAVOK
BECMG 1807/1809 16005KT
TEMPO 1812/1819 FEW050CB
BECMG 1820/1822 34010KT
ATIS : +33 4 93 17 21 16
Pas de NOTAMs connus pour ce terrain.



MET'MAP, la Météo Aéronautique d'un coup d'oeil ! - Copyright ORBIFLY Décembre 2007 - Disclaimer

ORBIFLY MET'MAP TEAM :

Programmation & Développement : Alexandra Zaïnal
Conception & Développement : Baudouin d'Aumeries
Co-Programmation & Développement : Marc-Olivier Méhu
Soutien technique & logistique : Manuel Goepfert

Contact : metmap@orbifly.com




SOURCES & CREDITS :

   NOAA